sat.trackr.live / text

‹ back to catalog

POLAR SCOUT YUKON

NORAD 43808 · 2018-099BC

PAYLOAD ACTIVE UNKNOWN

§ Identity

Operator
Country
US
Launch date
2018-12-03
Launch site
AFWTR
Launch vehicle
Mass (kg)
RCS (m²)

External: N2YO · Heavens-Above · Gunter

§ Orbital elements

Epoch: 2026-05-25T03:53:26.575296Z

Period
93.69 min
Inclination
97.4689°
Eccentricity
0.0005738
Mean motion
15.36923572 rev/d
Perigee alt
451.3 km
Apogee alt
459.1 km
Semi-major
6,833.3 km
B*
6.0016e-4
RAAN
217.5737°
Arg perigee
64.4565°
Mean anomaly
295.7271°
Rev number
40,997

§ Raw data

POLAR SCOUT YUKON1 43808U 18099BC  26145.16211314  .00021632  00000+0  60016-3 0  99962 43808  97.4689 217.5737 0005738  64.4565 295.7271 15.36923572409978

JSON: /api/v1/satellites/43808 · /tle

For live sub-satellite position, see the globe view (requires WebGL).

§ Visibility from observer

Set your observer location to see the next 7 days of passes ≥ 10°. The values pass through the URL so the page stays shareable.

No JS? Fill the form by hand. The geolocation button needs JavaScript.